Haines, AK

2:45 AM AKST on February 13, 2016 (GMT -0900)
Haines

Weather History for PAHN - September, 2012

Change the Weather History Date:

Tuesday, September 18, 2012

  Actual Average Record
Temperature  
Mean Temperature 46 °F -  
Max Temperature 54 °F 52 °F 72 °F (2010)
Min Temperature 39 °F 44 °F 30 °F (1978)
Degree Days  
Heating Degree Days 19    
Moisture  
Dew Point 42 °F    
Average Humidity 81    
Maximum Humidity 97    
Minimum Humidity 68    
Precipitation  
Precipitation 0.00 in - - ()
Sea Level Pressure  
Sea Level Pressure 30.22 in    
Wind  
Wind Speed 7 mph (ENE)    
Max Wind Speed 10 mph    
Max Gust Speed 21 mph    
Visibility 10 miles    
Events      
Averages and records for this station are not official NWS values.
T = Trace of Precipitation, MM = Missing Value Source: NWS Daily Summary

Daily Weather History Graph

Daily Weather History Graph

Search for Another Location

Airport or City:

Trip Planner

Search our weather history database for the weather conditions in past years. The results will help you decide how hot, cold, wet, or windy it might be!

Date:

Astronomy

Sep. 18, 2012 Rise Set
Actual Time 6:39 AM AKDT 7:11 PM AKDT
Civil Twilight 5:58 AM AKDT 7:52 PM AKDT
Nautical Twilight 5:08 AM AKDT 8:41 PM AKDT
Astronomical Twilight 4:13 AM AKDT 9:35 PM AKDT
Moon 10:50 AM AKDT (9/18) 7:33 PM AKDT (9/18)
Length of Visible Light 13h 54m
Length of Day
12h 32m
Waxing Crescent, 10% of the Moon is Illuminated
Sep 18
Waxing Crescent
Sep 22
First Quarter
Sep 29
Full
Oct 7
Last Quarter
Oct 15
New

Hourly Weather History & Observations

Time (AKDT) Temp. Windchill Dew Point Humidity Pressure Visibility Wind Dir Wind Speed Gust Speed Precip Events Conditions
12:54 AM 50.0 °F - 43.0 °F 77% 30.18 in 10.0 mi East 10.4 mph - N/A   Clear
1:54 AM 50.0 °F - 42.1 °F 74% 30.19 in 10.0 mi ENE 10.4 mph - N/A   Clear
2:54 AM 48.9 °F - 42.1 °F 77% 30.20 in 10.0 mi East 3.5 mph - N/A   Clear
3:54 AM 48.0 °F - 43.0 °F 83% 30.21 in 10.0 mi Calm Calm - N/A   Clear
4:54 AM 42.1 °F 40.2 °F 41.0 °F 96% 30.22 in 10.0 mi WNW 3.5 mph - N/A   Mostly Cloudy
5:40 AM 41.0 °F 36.4 °F 39.2 °F 93% 30.21 in 10.0 mi WNW 6.9 mph - N/A   Scattered Clouds
5:54 AM 41.0 °F 35.2 °F 39.9 °F 96% 30.22 in 10.0 mi WNW 9.2 mph - N/A   Mostly Cloudy
6:54 AM 39.9 °F 36.7 °F 39.0 °F 97% 30.22 in 10.0 mi NW 4.6 mph - N/A   Mostly Cloudy
7:22 AM 41.0 °F 37.1 °F 39.2 °F 93% 30.22 in 10.0 mi WNW 5.8 mph - N/A   Scattered Clouds
7:54 AM 43.0 °F 40.3 °F 41.0 °F 93% 30.23 in 10.0 mi WNW 4.6 mph - N/A   Mostly Cloudy
8:54 AM 44.1 °F 41.5 °F 41.0 °F 89% 30.24 in 10.0 mi West 4.6 mph - N/A   Overcast
9:54 AM 46.0 °F 43.1 °F 42.1 °F 86% 30.24 in 10.0 mi West 5.8 mph - N/A   Mostly Cloudy
10:05 AM 46.4 °F 43.5 °F 42.8 °F 87% 30.23 in 10.0 mi West 5.8 mph - N/A   Scattered Clouds
10:54 AM 51.1 °F - 44.1 °F 77% 30.24 in 10.0 mi East 10.4 mph 16.1 mph N/A   Partly Cloudy
11:54 AM 53.1 °F - 46.0 °F 77% 30.23 in 10.0 mi East 8.1 mph 19.6 mph N/A   Scattered Clouds
12:54 PM 52.0 °F - 44.1 °F 74% 30.23 in 10.0 mi East 9.2 mph 18.4 mph N/A   Mostly Cloudy
1:54 PM 53.1 °F - 45.0 °F 74% 30.22 in 10.0 mi ESE 8.1 mph - N/A   Overcast
2:54 PM 52.0 °F - 44.1 °F 74% 30.22 in 10.0 mi East 8.1 mph 17.3 mph N/A   Overcast
3:54 PM 52.0 °F - 44.1 °F 74% 30.21 in 10.0 mi ESE 9.2 mph 20.7 mph N/A   Overcast
4:54 PM 52.0 °F - 44.1 °F 74% 30.21 in 10.0 mi ESE 5.8 mph - N/A   Overcast
5:54 PM 52.0 °F - 43.0 °F 71% 30.22 in 10.0 mi East 5.8 mph - N/A   Overcast
6:54 PM 51.1 °F - 43.0 °F 74% 30.22 in 10.0 mi East 8.1 mph - N/A   Overcast
7:54 PM 51.1 °F - 42.1 °F 71% 30.22 in 10.0 mi East 8.1 mph - N/A   Overcast
8:54 PM 51.1 °F - 41.0 °F 68% 30.23 in 10.0 mi East 4.6 mph - N/A   Mostly Cloudy
9:54 PM 48.9 °F - 43.0 °F 80% 30.23 in 10.0 mi Calm Calm - N/A   Scattered Clouds
10:54 PM 48.0 °F - 42.1 °F 80% 30.24 in 10.0 mi ESE 6.9 mph - N/A   Partly Cloudy
11:54 PM 46.9 °F - 42.1 °F 83% 30.23 in 10.0 mi Variable 5.8 mph - N/A   Scattered Clouds